Volver al catálogo

CZ-4 DEB

ActivoSSO
NORAD 20899·DEBRIS·🇨🇳 China

Lanzado Sep 3, 1990 desde Taiyuan Satellite Launch Center

Loading…

Próximos Pases (próximas 24 horas)

TLE

ActualizadoSource: Space-Track

Época: Sep 13, 2026, 19:13 UTC

1 20899U 90081BK  26256.80110782  .00005577  00000-0  91085-3 0  9994
2 20899  98.2923 345.3512 0006310 242.1676 242.3720 14.71286340869733

Sigue CZ-4 DEB en tiempo real con AllMySat

Download on the App Store